{"data":{"norad_id":63489,"intl_designator":"2025-052BK","name":"HERMES-6","alt_names":[],"object_type":"PAYLOAD","status":"ACTIVE","operator":null,"country":"IT","launch_date":"2025-03-15","launch_site_code":"AFWTR","launch_vehicle":null,"mission":null,"orbit_class":"UNKNOWN","rcs_meters":null,"size_class":null,"mass_kg":null,"dimensions":null,"purposes":[],"wikipedia_slug":null,"has_3d_model":false,"image_url":null,"decayed_at":null,"tle_current":{"epoch":"2026-05-24T22:46:37.438752Z","epoch_age_seconds":76145,"freshness":"FRESH","line1":"1 63489U 25052BK  26144.94904443  .00006107  00000+0  26426-3 0  9994","line2":"2 63489  97.4028  37.7720 0004437 245.6461 114.4313 15.22786698 66298","mean_motion":15.22786698,"eccentricity":0.0004437,"inclination_deg":97.4028,"raan_deg":37.772,"arg_perigee_deg":245.6461,"mean_anomaly_deg":114.4313,"bstar":0.00026426,"rev_number":6629,"period_min":94.563473787318,"perigee_km":494.38890909895,"apogee_km":500.49029577595,"semimajor_km":6875.5766024374,"source":"CELESTRAK","updated_at":"2026-05-25T13:38:03.766712Z"}}}